Regional Weather Roundup
Issued by NWS Sioux Falls, SD

Home | Current Version | Previous Version | Text Only | Print | Product List | Glossary Off
Versions: 1 2 3 4 5 6 7 8 9 10 11 12 13 14 15 16 17 18 19 20 21 22 23 24 25 26 27 28 29 30 31 32 33 34 35 36 37 38 39 40 41 42 43 44 45 46 47 48 49 50

000
ASUS43 KFSD 280510
RWRFSD

WEATHER ROUNDUP FOR SE SOUTH DAKOTA/SW MINNESOTA/NW IOWA
NATIONAL WEATHER SERVICE SIOUX FALLS SD
1200 AM CDT FRI AUG 28 2015

NOTE: "FAIR" INDICATES FEW OR NO CLOUDS BELOW 12,000 FEET WITH NO
SIGNIFICANT WEATHER AND OR OBSTRUCTIONS TO VISIBILITY.


SDZ038>040-050-052>070-280600-
SOUTHEAST SOUTH DAKOTA

CITY           SKY/WX    TMP DP  RH WIND       PRES   REMARKS
BROOKINGS      CLOUDY    66  61  82 SE12      29.97R
CHAMBERLAIN    CLOUDY    68  67  97 E10       29.92F
HURON          CLOUDY    68  66  93 S12       29.92R
MADISON        FAIR      66  66 100 S12       29.96R
MITCHELL       CLOUDY    67  66  97 E7        29.91F
SIOUX FALLS    LGT RAIN  66  64  93 SE17      29.96R
WINNER         CLOUDY    70  68  93 N5        29.91F FOG
YANKTON        CLOUDY    66  64  94 E15G21    29.94F
$$

MNZ071-072-080-081-089-090-097-098-280600-
SOUTHWEST MINNESOTA

CITY           SKY/WX    TMP DP  RH WIND       PRES   REMARKS
FAIRMONT       CLOUDY    63  57  82 S14       30.03R
JACKSON        LGT SNOW  64  63  94 S14       30.03S
LUVERNE        LGT RAIN  64  63  94 S14G25    29.98R
MARSHALL       CLOUDY    64  61  88 E5        29.98R
MONTEVIDEO     CLOUDY    63  63 100 S3        29.97S FOG
PIPESTONE      LGT RAIN  64  63  94 S10G21    29.96R
REDWOOD FALLS  CLOUDY    64  62  93 E7        29.95F
TRACY          LGT RAIN  66  64  91 S13       29.96R
WINDOM         LGT RAIN  64  61  88 SE13      29.98F
WORTHINGTON    CLOUDY    63  59  88 S10G16    30.00R
$$

IAZ001>003-012>014-020>022-031-032-NEZ013-014-SDZ071-280600-
NORTHWEST IOWA

CITY           SKY/WX    TMP DP  RH WIND       PRES   REMARKS
CHEROKEE       CLOUDY    64  64  97 SE6       30.00S
DENISON        CLOUDY    66  63  88 E5        29.97S
ESTHERVILLE    HVY RAIN  63  62  97 S14       30.04S FOG
LE MARS        CLOUDY    66  64  94 E9        29.99R
ORANGE CITY    LGT RAIN  64  64 100 E10G20    30.00S
SIOUX CITY     RAIN      67  63  87 E17       29.94R
SPENCER        LGT RAIN  65  61  87 SE14      30.02R
STORM LAKE     CLOUDY    63  63 100 SE9G20    30.01S
$$

ABBREVIATIONS USED IN REMARKS
   TC - TEMPERATURE IN CELSIUS
  WCI - WIND CHILL INDEX
   HX - HEAT INDEX
  VSB - VISIBILITY



USA.gov is the U.S. government's official web portal to all federal, state and local government web resources and services.